Location: McFarlands Corners
(41.4117°N, 81.3382°W)
Time: 06:27:07
(UTC+00:00)

Courier 1B - All Passes

Search period start: 18 February 2026 00:00
Search period end: 28 February 2026 00:00
Orbit: 962 x 1208 km, 28.3° (Epoch: 17 February)

Date Brightness Start Highest point End Pass type
(mag) Time Alt. Az. Time Alt. Az. Time Alt. Az.
18 Feb - 01:08:14 10° SW 01:13:50 23° SSE 01:19:38 10° ESE visible
18 Feb - 03:00:45 10° WSW 03:07:11 30° S 03:13:48 10° ESE visible
18 Feb - 04:54:36 10° WSW 05:00:36 25° SSW 05:06:39 10° SE night (unlit)
18 Feb - 06:51:13 10° SW 06:53:45 12° SSW 06:56:16 10° S night (unlit)
19 Feb - 00:15:08 10° SSW 00:20:06 20° SSE 00:25:15 10° ESE visible
19 Feb - 02:07:05 10° SW 02:13:20 30° S 02:19:51 10° ESE visible
19 Feb - 04:00:34 10° WSW 04:06:46 27° S 04:13:06 10° SE visible
19 Feb - 05:55:50 10° WSW 06:00:01 15° SSW 06:04:13 10° S night (unlit)
19 Feb - 23:22:23 10° SSW 23:26:26 16° SSE 23:30:36 10° ESE visible
20 Feb - 01:13:33 10° SW 01:19:32 28° S 01:25:47 10° ESE visible
20 Feb - 03:06:40 10° WSW 03:12:56 29° S 03:19:23 10° SE visible
20 Feb - 05:01:13 10° WSW 05:06:15 19° SSW 05:11:21 10° SSE night (unlit)
20 Feb - 22:30:17 10° S 22:32:48 12° SSE 22:35:20 10° SE daylight
21 Feb - 00:20:11 10° SW 00:25:47 25° SSE 00:31:38 10° ESE visible
21 Feb - 02:12:54 10° WSW 02:19:06 30° S 02:25:35 10° SE visible
21 Feb - 04:06:56 10° WSW 04:12:28 22° SSW 04:18:08 10° SSE visible
21 Feb - 23:26:59 10° SSW 23:32:05 21° SSE 23:37:22 10° ESE visible
22 Feb - 01:19:14 10° SW 01:25:18 29° S 01:31:39 10° ESE visible
22 Feb - 03:12:52 10° WSW 03:18:40 25° SSW 03:24:40 10° SE visible
22 Feb - 05:08:57 10° SW 05:11:51 12° SSW 05:14:47 10° S night (unlit)
22 Feb - 22:34:03 10° SSW 22:38:25 18° SSE 22:42:55 10° ESE daylight
23 Feb - 00:25:42 10° SW 00:31:32 28° S 00:37:39 10° ESE visible
23 Feb - 02:18:57 10° WSW 02:24:52 27° S 02:31:02 10° SE visible
23 Feb - 04:13:56 10° WSW 04:18:07 16° SSW 04:22:23 10° S night (unlit)
23 Feb - 21:41:32 10° S 21:44:48 14° SSE 21:48:09 10° SE daylight
23 Feb - 23:32:17 10° SW 23:37:48 26° S 23:43:35 10° ESE visible
24 Feb - 01:25:11 10° WSW 01:31:05 28° S 01:37:16 10° SE visible
24 Feb - 03:19:30 10° WSW 03:24:22 19° SSW 03:29:23 10° SSE visible
24 Feb - 20:50:30 10° SSE 20:51:14 10° SSE 20:51:58 10° SSE daylight
24 Feb - 22:39:00 10° SW 22:44:06 23° SSE 22:49:26 10° ESE daylight
25 Feb - 00:31:31 10° WSW 00:37:19 28° S 00:43:25 10° SE visible
25 Feb - 02:25:21 10° WSW 02:30:37 22° SSW 02:36:04 10° SSE visible
25 Feb - 21:45:55 10° SSW 21:50:28 19° SSE 21:55:10 10° ESE daylight
25 Feb - 23:37:56 10° SW 23:43:35 28° S 23:49:30 10° ESE visible
26 Feb - 01:31:24 10° WSW 01:36:52 24° SSW 01:42:33 10° SE visible
26 Feb - 03:27:13 10° SW 03:30:01 12° SSW 03:32:52 10° S visible
26 Feb - 20:53:07 10° SSW 20:56:51 16° SSE 21:00:42 10° SE daylight
26 Feb - 22:44:29 10° SW 22:49:53 26° S 22:55:32 10° ESE daylight
27 Feb - 00:37:36 10° WSW 00:43:07 26° S 00:48:55 10° SE visible
27 Feb - 02:32:22 10° SW 02:36:18 15° SSW 02:40:22 10° SSE visible
27 Feb - 20:00:49 10° S 20:03:18 12° SSE 20:05:48 10° SE daylight
27 Feb - 21:51:07 10° SW 21:56:13 24° S 22:01:30 10° ESE daylight
27 Feb - 23:43:54 10° WSW 23:49:24 27° S 23:55:10 10° SE visible
